Weather in Spitak

Armenia     40°49′50″N   44°16′14″E
temp.,
°C
wind,
m/s
gust,
m/s
humid.,
%
clouds,
%
prec.,
mm/h
press.,
hPa
HPBL,
m
29 november, mon
mon2901:00+1wsw238971 0.0 1020187
04:00+2wsw2490100 0.0 1021209
07:000sw229055 0.0 102250
10:00+2wsw2479100 0.0 1022288
13:00+5wsw467266 0.0 1021705
16:00+6wsw35624 0.0 1020573
19:00+3ssw227653 0.0 102329
22:00+2sw227335 0.0 102322
30 november, tue
tue3001:00+2sw227596 0.0 102226
04:00+2sw337896 0.0 102231
07:00+1ssw338158 0.0 102132
10:00+4ssw246895 0.0 1019144
13:00+9wsw4125193 0.0 1014743
16:00+10sw515449 0.0 10101401
19:00+6ssw37580 0.0 1010189
22:00+6sw512560 0.0 1008348
1 december, wed
wed101:00+6sw818510 0.0 1005785
04:00+6sw1021541 0.0 10031150
07:00+5sw10196314 0.0 10031283
10:00+5sw11205527 0.1 10021886
13:00+7ssw10224893 0.1 10002451
16:00+3w4107396 0.8 10021094
19:00−3nne1291100 4.3 1010281
22:00−3w1195100 7.6 1011169
2 december, thu
thu201:00−4w2395100 1.4 1013243
04:00−9sw32916 1.6 101819
07:00−11ssw328823 0.0 102218
10:00−7sw22845 0.0 102188
13:00−3w23691 0.0 1020358
16:00−4wsw23803 0.0 1022140
19:00−10ssw32811 0.0 102914
22:00−11s22761 0.0 103113
3 december, fri
fri301:00−11s22711 0.0 103213
04:00−10s22740 0.0 103214
07:00−10s32751 0.0 103316
10:00−6ssw23735 0.0 103069
13:00−3sw23705 0.0 1026200
16:00−4sw2384100 0.0 102681
19:00−9ssw33783 0.0 103122
22:00−9ssw33721 0.0 103120